| time (UTC) | temp F | wind direction | speed MPH | gust MPH | rain 1hr in | rain 24hr in | rain mn in | humidity % | barometer mb |
| 20260906191527 | 77 | 216 | 0.0 | 5.0 | 0.00 | 0.00 | 0.00 | 39 | 1013.2 |
| 20260906191314 | 78 | 229 | 1.0 | 5.0 | 0.00 | 0.00 | 0.00 | 39 | 1013.2 |
| 20260906191112 | 78 | 234 | 0.0 | 4.0 | 0.00 | 0.00 | 0.00 | 37 | 1013.2 |
| 20260906190902 | 78 | 234 | 1.0 | 7.0 | 0.00 | 0.00 | 0.00 | 35 | 1013.2 |
| 20260906190650 | 78 | 235 | 1.0 | 7.0 | 0.00 | 0.00 | 0.00 | 35 | 1013.2 |
| 20260906190443 | 78 | 217 | 1.0 | 7.0 | 0.00 | 0.00 | 0.00 | 35 | 1013.3 |
| 20260906190235 | 77 | 196 | 1.0 | 7.0 | 0.00 | 0.00 | 0.00 | 36 | 1013.2 |
| 20260906190026 | 77 | 180 | 2.0 | 7.0 | 0.00 | 0.00 | 0.00 | 36 | 1013.2 |
| 20260906185820 | 77 | 217 | 1.0 | 7.0 | 0.00 | 0.00 | 0.00 | 35 | 1013.2 |
| 20260906185431 | 77 | 227 | 1.0 | 7.0 | 0.00 | 0.00 | 0.00 | 35 | 1013.1 |
| 20260906185227 | 77 | 234 | 2.0 | 7.0 | 0.00 | 0.00 | 0.00 | 35 | 1013.2 |
| 20260906184837 | 77 | 214 | 2.0 | 6.0 | 0.00 | 0.00 | 0.00 | 35 | 1013.1 |
| 20260906184451 | 77 | 225 | 1.0 | 6.0 | 0.00 | 0.00 | 0.00 | 35 | 1013.2 |
| 20260906184246 | 76 | 191 | 1.0 | 6.0 | 0.00 | 0.00 | 0.00 | 36 | 1013.1 |
| 20260906184033 | 75 | 234 | 1.0 | 5.0 | 0.00 | 0.00 | 0.00 | 37 | 1013.1 |
| 20260906183828 | 75 | 211 | 0.0 | 5.0 | 0.00 | 0.00 | 0.00 | 38 | 1013.1 |
| 20260906183622 | 74 | 221 | 0.0 | 5.0 | 0.00 | 0.00 | 0.00 | 39 | 1013.1 |
| 20260906183413 | 73 | 223 | 1.0 | 5.0 | 0.00 | 0.00 | 0.00 | 40 | 1013.1 |
| 20260906183207 | 73 | 215 | 0.0 | 5.0 | 0.00 | 0.00 | 0.00 | 40 | 1013.2 |
| 20260906182959 | 72 | 215 | 1.0 | 5.0 | 0.00 | 0.00 | 0.00 | 41 | 1013.1 |
| 20260906182754 | 72 | 217 | 1.0 | 6.0 | 0.00 | 0.00 | 0.00 | 40 | 1013.2 |
| 20260906182547 | 72 | 217 | 1.0 | 6.0 | 0.00 | 0.00 | 0.00 | 41 | 1013.2 |
| 20260906182341 | 72 | 223 | 1.0 | 6.0 | 0.00 | 0.00 | 0.00 | 41 | 1013.2 |
| 20260906182128 | 72 | 222 | 1.0 | 6.0 | 0.00 | 0.00 | 0.00 | 41 | 1013.2 |
| 20260906181734 | 71 | 165 | 1.0 | 6.0 | 0.00 | 0.00 | 0.00 | 41 | 1013.2 |
| 20260906181526 | 71 | 215 | 1.0 | 6.0 | 0.00 | 0.00 | 0.00 | 41 | 1013.3 |
| 20260906181316 | 71 | 223 | 2.0 | 6.0 | 0.00 | 0.00 | 0.00 | 42 | 1013.2 |
| 20260906181108 | 71 | 223 | 2.0 | 6.0 | 0.00 | 0.00 | 0.00 | 42 | 1013.2 |
| 20260906180858 | 71 | 224 | 2.0 | 6.0 | 0.00 | 0.00 | 0.00 | 42 | 1013.2 |
| 20260906180504 | 70 | 222 | 1.0 | 6.0 | 0.00 | 0.00 | 0.00 | 42 | 1013.2 |
| 20260906180259 | 70 | 201 | 1.0 | 6.0 | 0.00 | 0.00 | 0.00 | 43 | 1013.2 |
| 20260906180049 | 70 | 154 | 1.0 | 6.0 | 0.00 | 0.00 | 0.00 | 43 | 1013.3 |
| 20260906175842 | 70 | 211 | 1.0 | 6.0 | 0.00 | 0.00 | 0.00 | 44 | 1013.2 |
| 20260906175640 | 69 | 211 | 0.0 | 6.0 | 0.00 | 0.00 | 0.00 | 44 | 1013.2 |
| 20260906175437 | 69 | 209 | 1.0 | 6.0 | 0.00 | 0.00 | 0.00 | 44 | 1013.2 |
| 20260906175229 | 69 | 217 | 0.0 | 6.0 | 0.00 | 0.00 | 0.00 | 44 | 1013.3 |
| 20260906175024 | 69 | 217 | 0.0 | 6.0 | 0.00 | 0.00 | 0.00 | 44 | 1013.3 |
| 20260906174820 | 69 | 218 | 0.0 | 4.0 | 0.00 | 0.00 | 0.00 | 44 | 1013.3 |
| 20260906174616 | 69 | 218 | 0.0 | 4.0 | 0.00 | 0.00 | 0.00 | 45 | 1013.3 |
| 20260906174409 | 68 | 220 | 0.0 | 4.0 | 0.00 | 0.00 | 0.00 | 46 | 1013.3 |
| 20260906174156 | 68 | 221 | 0.0 | 4.0 | 0.00 | 0.00 | 0.00 | 46 | 1013.3 |
| 20260906173948 | 68 | 221 | 0.0 | 4.0 | 0.00 | 0.00 | 0.00 | 46 | 1013.2 |
| 20260906173738 | 68 | 178 | 0.0 | 1.0 | 0.00 | 0.00 | 0.00 | 46 | 1013.3 |
| 20260906173346 | 67 | 216 | 0.0 | 0.0 | 0.00 | 0.00 | 0.00 | 47 | 1013.2 |
| 20260906173135 | 67 | 216 | 0.0 | 1.0 | 0.00 | 0.00 | 0.00 | 47 | 1013.2 |
| 20260906172924 | 67 | 216 | 0.0 | 6.0 | 0.00 | 0.00 | 0.00 | 48 | 1013.2 |
| 20260906172713 | 66 | 216 | 1.0 | 6.0 | 0.00 | 0.00 | 0.00 | 48 | 1013.2 |
| 20260906172500 | 66 | 216 | 1.0 | 6.0 | 0.00 | 0.00 | 0.00 | 48 | 1013.2 |
| 20260906172249 | 66 | 215 | 1.0 | 5.0 | 0.00 | 0.00 | 0.00 | 48 | 1013.2 |
| 20260906172038 | 65 | 218 | 1.0 | 5.0 | 0.00 | 0.00 | 0.00 | 49 | 1013.2 |
| 20260906171649 | 65 | 219 | 0.0 | 5.0 | 0.00 | 0.00 | 0.00 | 51 | 1013.2 |
| 20260906171443 | 65 | 220 | 0.0 | 4.0 | 0.00 | 0.00 | 0.00 | 51 | 1013.2 |
| 20260906171240 | 64 | 221 | 0.0 | 4.0 | 0.00 | 0.00 | 0.00 | 52 | 1013.2 |
| 20260906171034 | 64 | 248 | 0.0 | 2.0 | 0.00 | 0.00 | 0.00 | 55 | 1013.1 |
| 20260906170830 | 64 | 248 | 0.0 | 2.0 | 0.00 | 0.00 | 0.00 | 56 | 1013.1 |
| 20260906170618 | 63 | 248 | 0.0 | 1.0 | 0.00 | 0.00 | 0.00 | 56 | 1013.1 |
| 20260906170415 | 63 | 223 | 0.0 | 5.0 | 0.00 | 0.00 | 0.00 | 56 | 1013.2 |
| 20260906170205 | 62 | 223 | 0.0 | 5.0 | 0.00 | 0.00 | 0.00 | 57 | 1013.2 |
| 20260906165952 | 62 | 234 | 0.0 | 0.0 | 0.00 | 0.00 | 0.00 | 58 | 1013.2 |
| 20260906165748 | 62 | 234 | 1.0 | 2.0 | 0.00 | 0.00 | 0.00 | 59 | 1013.3 |
| 20260906165357 | 61 | 234 | 1.0 | 6.0 | 0.00 | 0.00 | 0.00 | 59 | 1013.3 |
| 20260906165152 | 60 | 234 | 0.0 | 6.0 | 0.00 | 0.00 | 0.00 | 61 | 1013.2 |
| 20260906164945 | 60 | 216 | 0.0 | 2.0 | 0.00 | 0.00 | 0.00 | 63 | 1013.2 |
| 20260906164740 | 60 | 226 | 0.0 | 0.0 | 0.00 | 0.00 | 0.00 | 64 | 1013.2 |
| 20260906164528 | 59 | 226 | 0.0 | 3.0 | 0.00 | 0.00 | 0.00 | 64 | 1013.3 |
| 20260906164137 | 58 | 226 | 0.0 | 2.0 | 0.00 | 0.00 | 0.00 | 67 | 1013.3 |
| 20260906163933 | 58 | 226 | 0.0 | 0.0 | 0.00 | 0.00 | 0.00 | 68 | 1013.3 |
| 20260906163730 | 58 | 226 | 0.0 | 3.0 | 0.00 | 0.00 | 0.00 | 69 | 1013.3 |
| 20260906163521 | 57 | 226 | 0.0 | 0.0 | 0.00 | 0.00 | 0.00 | 70 | 1013.2 |
| 20260906163310 | 57 | 226 | 0.0 | 5.0 | 0.00 | 0.00 | 0.00 | 72 | 1013.3 |
| 20260906163108 | 56 | 225 | 0.0 | 1.0 | 0.00 | 0.00 | 0.00 | 72 | 1013.3 |
| 20260906162906 | 56 | 225 | 0.0 | 0.0 | 0.00 | 0.00 | 0.00 | 72 | 1013.2 |
| 20260906162656 | 56 | 225 | 0.0 | 3.0 | 0.00 | 0.00 | 0.00 | 73 | 1013.2 |
| 20260906162114 | 55 | 212 | 0.0 | 1.0 | 0.00 | 0.00 | 0.00 | 75 | 1013.3 |
| 20260906161908 | 54 | 212 | 0.0 | 4.0 | 0.00 | 0.00 | 0.00 | 76 | 1013.3 |
| 20260906161701 | 54 | 212 | 0.0 | 4.0 | 0.00 | 0.00 | 0.00 | 76 | 1013.3 |
| 20260906161455 | 54 | 212 | 0.0 | 4.0 | 0.00 | 0.00 | 0.00 | 76 | 1013.3 |
| 20260906161243 | 54 | 212 | 0.0 | 2.0 | 0.00 | 0.00 | 0.00 | 77 | 1013.3 |
| 20260906161036 | 53 | 212 | 0.0 | 0.0 | 0.00 | 0.00 | 0.00 | 77 | 1013.3 |
| 20260906160832 | 53 | 212 | 0.0 | 1.0 | 0.00 | 0.00 | 0.00 | 77 | 1013.3 |
| 20260906160626 | 53 | 212 | 0.0 | 0.0 | 0.00 | 0.00 | 0.00 | 77 | 1013.3 |
| 20260906160414 | 53 | 212 | 0.0 | 0.0 | 0.00 | 0.00 | 0.00 | 77 | 1013.3 |
| 20260906160028 | 53 | 212 | 0.0 | 0.0 | 0.00 | 0.00 | 0.00 | 77 | 1013.3 |
| 20260906155822 | 52 | 212 | 0.0 | 0.0 | 0.00 | 0.00 | 0.00 | 76 | 1013.3 |
| 20260906155610 | 52 | 212 | 0.0 | 0.0 | 0.00 | 0.00 | 0.00 | 76 | 1013.3 |
| 20260906155403 | 52 | 212 | 0.0 | 0.0 | 0.00 | 0.00 | 0.00 | 76 | 1013.3 |
| 20260906155153 | 52 | 212 | 0.0 | 0.0 | 0.00 | 0.00 | 0.00 | 75 | 1013.3 |
| 20260906154948 | 52 | 212 | 0.0 | 0.0 | 0.00 | 0.00 | 0.00 | 75 | 1013.4 |
| 20260906154745 | 52 | 212 | 0.0 | 0.0 | 0.00 | 0.00 | 0.00 | 75 | 1013.4 |
| 20260906154540 | 51 | 212 | 0.0 | 0.0 | 0.00 | 0.00 | 0.00 | 75 | 1013.4 |
| 20260906154327 | 51 | 212 | 0.0 | 0.0 | 0.00 | 0.00 | 0.00 | 74 | 1013.4 |
| 20260906154124 | 51 | 212 | 0.0 | 0.0 | 0.00 | 0.00 | 0.00 | 74 | 1013.5 |
| 20260906153920 | 51 | 212 | 0.0 | 0.0 | 0.00 | 0.00 | 0.00 | 74 | 1013.4 |
| 20260906153707 | 51 | 212 | 0.0 | 0.0 | 0.00 | 0.00 | 0.00 | 74 | 1013.5 |
| 20260906153315 | 51 | 212 | 0.0 | 0.0 | 0.00 | 0.00 | 0.00 | 73 | 1013.5 |
| 20260906153105 | 51 | 212 | 0.0 | 0.0 | 0.00 | 0.00 | 0.00 | 73 | 1013.5 |
| 20260906152858 | 51 | 212 | 0.0 | 0.0 | 0.00 | 0.00 | 0.00 | 73 | 1013.5 |
| 20260906152502 | 51 | 212 | 0.0 | 0.0 | 0.00 | 0.00 | 0.00 | 72 | 1013.4 |
| 20260906152254 | 51 | 212 | 0.0 | 0.0 | 0.00 | 0.00 | 0.00 | 72 | 1013.5 |
| 20260906152041 | 51 | 212 | 0.0 | 0.0 | 0.00 | 0.00 | 0.00 | 72 | 1013.4 |
| 20260906151839 | 50 | 212 | 0.0 | 0.0 | 0.00 | 0.00 | 0.00 | 72 | 1013.4 |
| 20260906151635 | 50 | 212 | 0.0 | 0.0 | 0.00 | 0.00 | 0.00 | 71 | 1013.4 |
| 20260906151433 | 50 | 212 | 0.0 | 0.0 | 0.00 | 0.00 | 0.00 | 71 | 1013.4 |
| 20260906151040 | 50 | 212 | 0.0 | 0.0 | 0.00 | 0.00 | 0.00 | 71 | 1013.4 |
| 20260906150838 | 50 | 212 | 0.0 | 0.0 | 0.00 | 0.00 | 0.00 | 71 | 1013.4 |
| 20260906150445 | 50 | 212 | 0.0 | 0.0 | 0.00 | 0.00 | 0.00 | 70 | 1013.4 |
| 20260906150244 | 50 | 212 | 0.0 | 0.0 | 0.00 | 0.00 | 0.00 | 70 | 1013.4 |
| 20260906150033 | 50 | 212 | 0.0 | 0.0 | 0.00 | 0.00 | 0.00 | 70 | 1013.4 |
| 20260906145638 | 50 | 212 | 0.0 | 0.0 | 0.00 | 0.00 | 0.00 | 70 | 1013.4 |
| 20260906145432 | 50 | 212 | 0.0 | 0.0 | 0.00 | 0.00 | 0.00 | 70 | 1013.4 |
| 20260906145229 | 50 | 212 | 0.0 | 0.0 | 0.00 | 0.00 | 0.00 | 70 | 1013.4 |
| 20260906145018 | 50 | 212 | 0.0 | 0.0 | 0.00 | 0.00 | 0.00 | 69 | 1013.4 |
| 20260906144813 | 50 | 212 | 0.0 | 0.0 | 0.00 | 0.00 | 0.00 | 69 | 1013.4 |
| 20260906144422 | 50 | 212 | 0.0 | 0.0 | 0.00 | 0.00 | 0.00 | 69 | 1013.2 |
| 20260906144209 | 50 | 212 | 0.0 | 0.0 | 0.00 | 0.00 | 0.00 | 69 | 1013.3 |
| 20260906143958 | 50 | 212 | 0.0 | 0.0 | 0.00 | 0.00 | 0.00 | 69 | 1013.2 |
| 20260906143747 | 50 | 212 | 0.0 | 0.0 | 0.00 | 0.00 | 0.00 | 69 | 1013.2 |
| 20260906143354 | 50 | 212 | 0.0 | 0.0 | 0.00 | 0.00 | 0.00 | 68 | 1013.3 |
| 20260906143151 | 50 | 212 | 0.0 | 0.0 | 0.00 | 0.00 | 0.00 | 68 | 1013.3 |
| 20260906142805 | 50 | 212 | 0.0 | 0.0 | 0.00 | 0.00 | 0.00 | 68 | 1013.3 |
| 20260906142553 | 50 | 212 | 0.0 | 0.0 | 0.00 | 0.00 | 0.00 | 68 | 1013.2 |
| 20260906142340 | 50 | 212 | 0.0 | 0.0 | 0.00 | 0.00 | 0.00 | 68 | 1013.2 |
| 20260906141802 | 50 | 212 | 0.0 | 0.0 | 0.00 | 0.00 | 0.00 | 68 | 1013.2 |
| 20260906141559 | 50 | 212 | 0.0 | 0.0 | 0.00 | 0.00 | 0.00 | 68 | 1013.1 |
| 20260906141354 | 50 | 212 | 0.0 | 0.0 | 0.00 | 0.00 | 0.00 | 68 | 1013.2 |
| 20260906141150 | 50 | 212 | 0.0 | 0.0 | 0.00 | 0.00 | 0.00 | 67 | 1013.2 |
| 20260906140939 | 50 | 212 | 0.0 | 0.0 | 0.00 | 0.00 | 0.00 | 67 | 1013.2 |
| 20260906140551 | 50 | 212 | 0.0 | 0.0 | 0.00 | 0.00 | 0.00 | 67 | 1013.2 |
| 20260906140343 | 50 | 212 | 0.0 | 0.0 | 0.00 | 0.00 | 0.00 | 67 | 1013.2 |
| 20260906140139 | 50 | 212 | 0.0 | 0.0 | 0.00 | 0.00 | 0.00 | 67 | 1013.2 |
| 20260906135929 | 50 | 212 | 0.0 | 0.0 | 0.00 | 0.00 | 0.00 | 67 | 1013.2 |
| 20260906135725 | 50 | 212 | 0.0 | 0.0 | 0.00 | 0.00 | 0.00 | 67 | 1013.2 |
| 20260906135513 | 50 | 212 | 0.0 | 0.0 | 0.00 | 0.00 | 0.00 | 67 | 1013.2 |
| 20260906135307 | 50 | 212 | 0.0 | 0.0 | 0.00 | 0.00 | 0.00 | 67 | 1013.1 |
| 20260906135103 | 50 | 212 | 0.0 | 0.0 | 0.00 | 0.00 | 0.00 | 66 | 1013.1 |
| 20260906134853 | 50 | 212 | 0.0 | 0.0 | 0.00 | 0.00 | 0.00 | 66 | 1013.1 |
| 20260906134456 | 50 | 212 | 0.0 | 0.0 | 0.00 | 0.00 | 0.00 | 66 | 1013.1 |
| 20260906134245 | 50 | 212 | 0.0 | 0.0 | 0.00 | 0.00 | 0.00 | 66 | 1013.1 |
| 20260906134040 | 50 | 212 | 0.0 | 0.0 | 0.00 | 0.00 | 0.00 | 66 | 1013.1 |
| 20260906133837 | 50 | 212 | 0.0 | 0.0 | 0.00 | 0.00 | 0.00 | 66 | 1013.1 |
| 20260906133119 | 50 | 212 | 0.0 | 0.0 | 0.00 | 0.00 | 0.00 | 66 | 1013.0 |
| 20260906132915 | 50 | 212 | 0.0 | 0.0 | 0.00 | 0.00 | 0.00 | 66 | 1013.0 |
| 20260906132711 | 50 | 212 | 0.0 | 0.0 | 0.00 | 0.00 | 0.00 | 66 | 1013.0 |
| 20260906132508 | 50 | 212 | 0.0 | 0.0 | 0.00 | 0.00 | 0.00 | 66 | 1013.0 |
| 20260906132301 | 50 | 212 | 0.0 | 0.0 | 0.00 | 0.00 | 0.00 | 66 | 1012.9 |
| 20260906131636 | 50 | 212 | 0.0 | 0.0 | 0.00 | 0.00 | 0.00 | 65 | 1012.9 |
| 20260906131241 | 50 | 212 | 0.0 | 0.0 | 0.00 | 0.00 | 0.00 | 65 | 1012.9 |
| 20260906130848 | 50 | 212 | 0.0 | 0.0 | 0.00 | 0.00 | 0.00 | 65 | 1012.9 |
| 20260906130643 | 50 | 212 | 0.0 | 0.0 | 0.00 | 0.00 | 0.00 | 65 | 1013.0 |
| 20260906130435 | 50 | 212 | 0.0 | 0.0 | 0.00 | 0.00 | 0.00 | 65 | 1012.8 |
| 20260906130231 | 50 | 212 | 0.0 | 0.0 | 0.00 | 0.00 | 0.00 | 65 | 1012.8 |
| 20260906130029 | 51 | 212 | 0.0 | 0.0 | 0.00 | 0.00 | 0.00 | 65 | 1012.9 |
| 20260906125820 | 51 | 212 | 0.0 | 0.0 | 0.00 | 0.00 | 0.00 | 65 | 1012.8 |
| 20260906125615 | 51 | 212 | 0.0 | 0.0 | 0.00 | 0.00 | 0.00 | 65 | 1012.8 |
| 20260906125405 | 51 | 212 | 0.0 | 0.0 | 0.00 | 0.00 | 0.00 | 65 | 1012.8 |
| 20260906125158 | 51 | 212 | 0.0 | 0.0 | 0.00 | 0.00 | 0.00 | 65 | 1012.8 |
| 20260906124953 | 51 | 212 | 0.0 | 0.0 | 0.00 | 0.00 | 0.00 | 65 | 1012.7 |
| 20260906124749 | 51 | 212 | 0.0 | 0.0 | 0.00 | 0.00 | 0.00 | 65 | 1012.7 |
| 20260906124544 | 51 | 212 | 0.0 | 0.0 | 0.00 | 0.00 | 0.00 | 64 | 1012.7 |
| 20260906124333 | 51 | 212 | 0.0 | 0.0 | 0.00 | 0.00 | 0.00 | 64 | 1012.7 |
| 20260906124130 | 51 | 212 | 0.0 | 0.0 | 0.00 | 0.00 | 0.00 | 64 | 1012.8 |
| 20260906123929 | 51 | 212 | 0.0 | 0.0 | 0.00 | 0.00 | 0.00 | 64 | 1012.7 |
| 20260906123719 | 51 | 212 | 0.0 | 0.0 | 0.00 | 0.00 | 0.00 | 64 | 1012.7 |
| 20260906123511 | 51 | 212 | 0.0 | 0.0 | 0.00 | 0.00 | 0.00 | 64 | 1012.6 |
| 20260906123257 | 51 | 212 | 0.0 | 0.0 | 0.00 | 0.00 | 0.00 | 64 | 1012.6 |
| 20260906123046 | 51 | 212 | 0.0 | 0.0 | 0.00 | 0.00 | 0.00 | 64 | 1012.6 |
| 20260906122652 | 51 | 212 | 0.0 | 0.0 | 0.00 | 0.00 | 0.00 | 64 | 1012.7 |
| 20260906122449 | 51 | 212 | 0.0 | 0.0 | 0.00 | 0.00 | 0.00 | 64 | 1012.7 |
| 20260906122239 | 51 | 212 | 0.0 | 0.0 | 0.00 | 0.00 | 0.00 | 64 | 1012.7 |
| 20260906122031 | 51 | 212 | 0.0 | 0.0 | 0.00 | 0.00 | 0.00 | 64 | 1012.7 |
| 20260906121821 | 51 | 212 | 0.0 | 0.0 | 0.00 | 0.00 | 0.00 | 64 | 1012.7 |
| 20260906121612 | 51 | 212 | 0.0 | 0.0 | 0.00 | 0.00 | 0.00 | 64 | 1012.7 |
| 20260906121402 | 51 | 212 | 0.0 | 0.0 | 0.00 | 0.00 | 0.00 | 64 | 1012.6 |
| 20260906121156 | 51 | 212 | 0.0 | 0.0 | 0.00 | 0.00 | 0.00 | 63 | 1012.7 |
| 20260906120945 | 51 | 212 | 0.0 | 0.0 | 0.00 | 0.00 | 0.00 | 63 | 1012.7 |
| 20260906120741 | 51 | 212 | 0.0 | 0.0 | 0.00 | 0.00 | 0.00 | 63 | 1012.6 |
| 20260906120539 | 51 | 212 | 0.0 | 0.0 | 0.00 | 0.00 | 0.00 | 63 | 1012.7 |
| 20260906120007 | 51 | 212 | 0.0 | 0.0 | 0.00 | 0.00 | 0.00 | 63 | 1012.7 |
| 20260906115756 | 51 | 212 | 0.0 | 0.0 | 0.00 | 0.00 | 0.00 | 63 | 1012.7 |
| 20260906115546 | 51 | 212 | 0.0 | 0.0 | 0.00 | 0.00 | 0.00 | 63 | 1012.7 |
| 20260906115344 | 51 | 212 | 0.0 | 0.0 | 0.00 | 0.00 | 0.00 | 63 | 1012.7 |
| 20260906115135 | 51 | 212 | 0.0 | 0.0 | 0.00 | 0.00 | 0.00 | 63 | 1012.7 |
| 20260906114928 | 51 | 212 | 0.0 | 0.0 | 0.00 | 0.00 | 0.00 | 63 | 1012.7 |
| 20260906114536 | 51 | 212 | 0.0 | 0.0 | 0.00 | 0.00 | 0.00 | 63 | 1012.7 |
| 20260906114332 | 52 | 212 | 0.0 | 0.0 | 0.00 | 0.00 | 0.00 | 63 | 1012.7 |
| 20260906113938 | 52 | 212 | 0.0 | 0.0 | 0.00 | 0.00 | 0.00 | 63 | 1012.7 |
| 20260906113727 | 52 | 212 | 0.0 | 0.0 | 0.00 | 0.00 | 0.00 | 63 | 1012.6 |
| 20260906113522 | 52 | 212 | 0.0 | 0.0 | 0.00 | 0.00 | 0.00 | 63 | 1012.6 |
| 20260906113311 | 52 | 212 | 0.0 | 0.0 | 0.00 | 0.00 | 0.00 | 62 | 1012.7 |
| 20260906113108 | 52 | 212 | 0.0 | 0.0 | 0.00 | 0.00 | 0.00 | 62 | 1012.6 |
| 20260906112857 | 52 | 212 | 0.0 | 0.0 | 0.00 | 0.00 | 0.00 | 62 | 1012.6 |
| 20260906112645 | 52 | 212 | 0.0 | 0.0 | 0.00 | 0.00 | 0.00 | 62 | 1012.6 |
| 20260906112438 | 52 | 212 | 0.0 | 0.0 | 0.00 | 0.00 | 0.00 | 62 | 1012.7 |
| 20260906112231 | 52 | 212 | 0.0 | 0.0 | 0.00 | 0.00 | 0.00 | 62 | 1012.6 |
| 20260906111651 | 52 | 212 | 0.0 | 0.0 | 0.00 | 0.00 | 0.00 | 62 | 1012.6 |
| 20260906111439 | 52 | 212 | 0.0 | 0.0 | 0.00 | 0.00 | 0.00 | 62 | 1012.6 |
| 20260906111233 | 52 | 212 | 0.0 | 0.0 | 0.00 | 0.00 | 0.00 | 62 | 1012.6 |
| 20260906111030 | 52 | 212 | 0.0 | 0.0 | 0.00 | 0.00 | 0.00 | 62 | 1012.6 |
| 20260906110827 | 52 | 212 | 0.0 | 0.0 | 0.00 | 0.00 | 0.00 | 62 | 1012.6 |
| 20260906110617 | 52 | 212 | 0.0 | 0.0 | 0.00 | 0.00 | 0.00 | 62 | 1012.6 |
| 20260906110409 | 52 | 212 | 0.0 | 0.0 | 0.00 | 0.00 | 0.00 | 62 | 1012.6 |
| 20260906110021 | 52 | 212 | 0.0 | 0.0 | 0.00 | 0.00 | 0.00 | 62 | 1012.6 |
| 20260906105811 | 52 | 212 | 0.0 | 0.0 | 0.00 | 0.00 | 0.00 | 62 | 1012.6 |
| 20260906105602 | 52 | 212 | 0.0 | 0.0 | 0.00 | 0.00 | 0.00 | 62 | 1012.6 |
| 20260906105208 | 52 | 212 | 0.0 | 0.0 | 0.00 | 0.00 | 0.00 | 62 | 1012.6 |
| 20260906105001 | 52 | 212 | 0.0 | 0.0 | 0.00 | 0.00 | 0.00 | 62 | 1012.7 |
| 20260906104749 | 52 | 212 | 0.0 | 0.0 | 0.00 | 0.00 | 0.00 | 62 | 1012.7 |
| 20260906104546 | 52 | 212 | 0.0 | 0.0 | 0.00 | 0.00 | 0.00 | 61 | 1012.6 |
| 20260906104334 | 52 | 212 | 0.0 | 0.0 | 0.00 | 0.00 | 0.00 | 61 | 1012.7 |
| 20260906104126 | 52 | 212 | 0.0 | 0.0 | 0.00 | 0.00 | 0.00 | 61 | 1012.7 |
| 20260906103920 | 52 | 212 | 0.0 | 0.0 | 0.00 | 0.00 | 0.00 | 61 | 1012.7 |
| 20260906103715 | 52 | 212 | 0.0 | 0.0 | 0.00 | 0.00 | 0.00 | 61 | 1012.7 |
| 20260906103323 | 52 | 212 | 0.0 | 0.0 | 0.00 | 0.00 | 0.00 | 61 | 1012.7 |
| 20260906103116 | 52 | 212 | 0.0 | 0.0 | 0.00 | 0.00 | 0.00 | 61 | 1012.7 |
| 20260906102728 | 52 | 212 | 0.0 | 0.0 | 0.00 | 0.00 | 0.00 | 61 | 1012.7 |
| 20260906102526 | 52 | 212 | 0.0 | 0.0 | 0.00 | 0.00 | 0.00 | 61 | 1012.7 |
| 20260906102320 | 52 | 212 | 0.0 | 0.0 | 0.00 | 0.00 | 0.00 | 61 | 1012.7 |
| 20260906101922 | 53 | 212 | 0.0 | 0.0 | 0.00 | 0.00 | 0.00 | 61 | 1012.6 |
| 20260906101710 | 53 | 212 | 0.0 | 0.0 | 0.00 | 0.00 | 0.00 | 61 | 1012.6 |
| 20260906101504 | 53 | 212 | 0.0 | 0.0 | 0.00 | 0.00 | 0.00 | 61 | 1012.6 |
| 20260906101255 | 53 | 212 | 0.0 | 0.0 | 0.00 | 0.00 | 0.00 | 61 | 1012.6 |
| 20260906101052 | 53 | 212 | 0.0 | 0.0 | 0.00 | 0.00 | 0.00 | 61 | 1012.6 |
| 20260906100846 | 53 | 212 | 0.0 | 0.0 | 0.00 | 0.00 | 0.00 | 61 | 1012.6 |
| 20260906100457 | 53 | 212 | 0.0 | 0.0 | 0.00 | 0.00 | 0.00 | 61 | 1012.6 |
| 20260906100108 | 53 | 212 | 0.0 | 0.0 | 0.00 | 0.00 | 0.00 | 61 | 1012.6 |
| 20260906095906 | 53 | 212 | 0.0 | 0.0 | 0.00 | 0.00 | 0.00 | 61 | 1012.6 |
| 20260906095657 | 53 | 212 | 0.0 | 0.0 | 0.00 | 0.00 | 0.00 | 61 | 1012.6 |
| 20260906095308 | 53 | 212 | 0.0 | 0.0 | 0.00 | 0.00 | 0.00 | 61 | 1012.6 |
| 20260906095103 | 53 | 212 | 0.0 | 0.0 | 0.00 | 0.00 | 0.00 | 61 | 1012.6 |
| 20260906094707 | 53 | 212 | 0.0 | 0.0 | 0.00 | 0.00 | 0.00 | 60 | 1012.6 |
| 20260906094456 | 53 | 212 | 0.0 | 0.0 | 0.00 | 0.00 | 0.00 | 60 | 1012.6 |
| 20260906094245 | 53 | 212 | 0.0 | 0.0 | 0.00 | 0.00 | 0.00 | 60 | 1012.6 |
| 20260906094043 | 53 | 212 | 0.0 | 0.0 | 0.00 | 0.00 | 0.00 | 61 | 1012.6 |
| 20260906093838 | 53 | 212 | 0.0 | 0.0 | 0.00 | 0.00 | 0.00 | 61 | 1012.7 |
| 20260906093628 | 53 | 212 | 0.0 | 0.0 | 0.00 | 0.00 | 0.00 | 61 | 1012.7 |
| 20260906093427 | 53 | 212 | 0.0 | 0.0 | 0.00 | 0.00 | 0.00 | 61 | 1012.7 |
| 20260906093220 | 53 | 212 | 0.0 | 0.0 | 0.00 | 0.00 | 0.00 | 61 | 1012.7 |
| 20260906093010 | 53 | 212 | 0.0 | 0.0 | 0.00 | 0.00 | 0.00 | 60 | 1012.7 |
| 20260906092759 | 53 | 212 | 0.0 | 0.0 | 0.00 | 0.00 | 0.00 | 61 | 1012.8 |
| 20260906092548 | 53 | 212 | 0.0 | 0.0 | 0.00 | 0.00 | 0.00 | 60 | 1012.8 |
| 20260906092338 | 53 | 212 | 0.0 | 0.0 | 0.00 | 0.00 | 0.00 | 60 | 1012.7 |
| 20260906092127 | 53 | 212 | 0.0 | 0.0 | 0.00 | 0.00 | 0.00 | 60 | 1012.8 |
| 20260906091914 | 53 | 212 | 0.0 | 0.0 | 0.00 | 0.00 | 0.00 | 61 | 1012.8 |
| 20260906091709 | 53 | 212 | 0.0 | 0.0 | 0.00 | 0.00 | 0.00 | 60 | 1012.8 |
| 20260906091501 | 53 | 212 | 0.0 | 0.0 | 0.00 | 0.00 | 0.00 | 60 | 1012.8 |
| 20260906091254 | 53 | 212 | 0.0 | 0.0 | 0.00 | 0.00 | 0.00 | 60 | 1012.8 |
| 20260906091042 | 53 | 212 | 0.0 | 0.0 | 0.00 | 0.00 | 0.00 | 60 | 1012.8 |
| 20260906090839 | 53 | 212 | 0.0 | 0.0 | 0.00 | 0.00 | 0.00 | 60 | 1012.8 |
| 20260906090626 | 53 | 212 | 0.0 | 0.0 | 0.00 | 0.00 | 0.00 | 60 | 1012.8 |
| 20260906090229 | 53 | 212 | 0.0 | 0.0 | 0.00 | 0.00 | 0.00 | 60 | 1012.9 |
| 20260906090023 | 53 | 212 | 0.0 | 0.0 | 0.00 | 0.00 | 0.00 | 60 | 1013.0 |
| 20260906085821 | 54 | 212 | 0.0 | 0.0 | 0.00 | 0.00 | 0.00 | 60 | 1013.0 |
| 20260906085617 | 54 | 212 | 0.0 | 0.0 | 0.00 | 0.00 | 0.00 | 60 | 1013.0 |
| 20260906085406 | 54 | 212 | 0.0 | 0.0 | 0.00 | 0.00 | 0.00 | 60 | 1012.9 |
| 20260906085203 | 54 | 212 | 0.0 | 0.0 | 0.00 | 0.00 | 0.00 | 61 | 1013.0 |
| 20260906084950 | 54 | 212 | 0.0 | 0.0 | 0.00 | 0.00 | 0.00 | 61 | 1013.0 |
| 20260906084745 | 54 | 212 | 0.0 | 0.0 | 0.00 | 0.00 | 0.00 | 61 | 1013.0 |
| 20260906084357 | 54 | 212 | 0.0 | 0.0 | 0.00 | 0.00 | 0.00 | 61 | 1013.0 |
| 20260906084005 | 54 | 212 | 0.0 | 0.0 | 0.00 | 0.00 | 0.00 | 61 | 1013.0 |
| 20260906083755 | 54 | 212 | 0.0 | 0.0 | 0.00 | 0.00 | 0.00 | 61 | 1013.0 |
| 20260906083546 | 54 | 212 | 0.0 | 0.0 | 0.00 | 0.00 | 0.00 | 61 | 1013.0 |
| 20260906083332 | 54 | 212 | 0.0 | 0.0 | 0.00 | 0.00 | 0.00 | 61 | 1013.0 |
| 20260906083128 | 54 | 212 | 0.0 | 0.0 | 0.00 | 0.00 | 0.00 | 61 | 1013.0 |
| 20260906082736 | 54 | 212 | 0.0 | 0.0 | 0.00 | 0.00 | 0.00 | 61 | 1013.1 |
| 20260906082524 | 54 | 212 | 0.0 | 0.0 | 0.00 | 0.00 | 0.00 | 61 | 1013.1 |
| 20260906082318 | 54 | 212 | 0.0 | 0.0 | 0.00 | 0.00 | 0.00 | 62 | 1013.1 |
| 20260906082115 | 54 | 212 | 0.0 | 0.0 | 0.00 | 0.00 | 0.00 | 62 | 1013.2 |
| 20260906081904 | 54 | 212 | 0.0 | 0.0 | 0.00 | 0.00 | 0.00 | 62 | 1013.2 |
| 20260906081657 | 54 | 212 | 0.0 | 0.0 | 0.00 | 0.00 | 0.00 | 62 | 1013.2 |
| 20260906081123 | 54 | 212 | 0.0 | 0.0 | 0.00 | 0.00 | 0.00 | 62 | 1013.1 |
| 20260906080729 | 54 | 212 | 0.0 | 0.0 | 0.00 | 0.00 | 0.00 | 63 | 1013.0 |
| 20260906080333 | 54 | 212 | 0.0 | 0.0 | 0.00 | 0.00 | 0.00 | 63 | 1012.9 |
| 20260906080120 | 55 | 212 | 0.0 | 0.0 | 0.00 | 0.00 | 0.00 | 63 | 1012.9 |
| 20260906075915 | 55 | 212 | 0.0 | 0.0 | 0.00 | 0.00 | 0.00 | 63 | 1012.9 |
| 20260906075709 | 55 | 212 | 0.0 | 0.0 | 0.00 | 0.00 | 0.00 | 63 | 1012.9 |
| 20260906075323 | 55 | 212 | 0.0 | 0.0 | 0.00 | 0.00 | 0.00 | 63 | 1012.9 |
| 20260906075114 | 55 | 212 | 0.0 | 0.0 | 0.00 | 0.00 | 0.00 | 63 | 1012.9 |
| 20260906074902 | 55 | 212 | 0.0 | 0.0 | 0.00 | 0.00 | 0.00 | 64 | 1012.9 |
| 20260906074506 | 55 | 212 | 0.0 | 0.0 | 0.00 | 0.00 | 0.00 | 64 | 1013.0 |
| 20260906074259 | 55 | 212 | 0.0 | 0.0 | 0.00 | 0.00 | 0.00 | 64 | 1012.9 |
| 20260906074053 | 55 | 212 | 0.0 | 0.0 | 0.00 | 0.00 | 0.00 | 64 | 1013.0 |
| 20260906073848 | 55 | 212 | 0.0 | 0.0 | 0.00 | 0.00 | 0.00 | 64 | 1013.0 |
| 20260906073643 | 55 | 212 | 0.0 | 0.0 | 0.00 | 0.00 | 0.00 | 64 | 1012.9 |
| 20260906073439 | 55 | 212 | 0.0 | 0.0 | 0.00 | 0.00 | 0.00 | 64 | 1013.0 |
| 20260906073227 | 55 | 212 | 0.0 | 0.0 | 0.00 | 0.00 | 0.00 | 64 | 1013.0 |
| 20260906073021 | 55 | 212 | 0.0 | 0.0 | 0.00 | 0.00 | 0.00 | 64 | 1012.9 |
| 20260906072814 | 55 | 212 | 0.0 | 0.0 | 0.00 | 0.00 | 0.00 | 64 | 1012.9 |
| 20260906072421 | 55 | 212 | 0.0 | 0.0 | 0.00 | 0.00 | 0.00 | 64 | 1012.9 |
| 20260906072215 | 55 | 212 | 0.0 | 0.0 | 0.00 | 0.00 | 0.00 | 64 | 1012.9 |
| 20260906071820 | 55 | 212 | 0.0 | 0.0 | 0.00 | 0.00 | 0.00 | 64 | 1012.9 |
| 20260906071610 | 55 | 212 | 0.0 | 0.0 | 0.00 | 0.00 | 0.00 | 64 | 1012.8 |
| 20260906071214 | 55 | 212 | 0.0 | 0.0 | 0.00 | 0.00 | 0.00 | 64 | 1012.8 |
| 20260906071005 | 55 | 212 | 0.0 | 0.0 | 0.00 | 0.00 | 0.00 | 64 | 1012.8 |
| 20260906070755 | 56 | 212 | 0.0 | 0.0 | 0.00 | 0.00 | 0.00 | 64 | 1012.8 |
| 20260906070546 | 56 | 212 | 0.0 | 0.0 | 0.00 | 0.00 | 0.00 | 63 | 1012.8 |
| 20260906070339 | 56 | 212 | 0.0 | 0.0 | 0.00 | 0.00 | 0.00 | 63 | 1012.8 |
| 20260906070130 | 56 | 212 | 0.0 | 0.0 | 0.00 | 0.00 | 0.00 | 63 | 1012.8 |
| 20260906065917 | 56 | 212 | 0.0 | 0.0 | 0.00 | 0.00 | 0.00 | 63 | 1012.8 |
| 20260906065711 | 56 | 212 | 0.0 | 0.0 | 0.00 | 0.00 | 0.00 | 63 | 1012.8 |
| 20260906065314 | 56 | 212 | 0.0 | 0.0 | 0.00 | 0.00 | 0.00 | 63 | 1012.8 |
| 20260906065100 | 56 | 212 | 0.0 | 0.0 | 0.00 | 0.00 | 0.00 | 63 | 1012.7 |
| 20260906064845 | 56 | 212 | 0.0 | 0.0 | 0.00 | 0.00 | 0.00 | 63 | 1012.8 |
| 20260906064637 | 56 | 212 | 0.0 | 0.0 | 0.00 | 0.00 | 0.00 | 63 | 1012.7 |
| 20260906064424 | 56 | 212 | 0.0 | 0.0 | 0.00 | 0.00 | 0.00 | 63 | 1012.7 |
| 20260906064207 | 56 | 212 | 0.0 | 0.0 | 0.00 | 0.00 | 0.00 | 63 | 1012.7 |
| 20260906063958 | 56 | 212 | 0.0 | 0.0 | 0.00 | 0.00 | 0.00 | 63 | 1012.7 |
| 20260906063753 | 56 | 212 | 0.0 | 0.0 | 0.00 | 0.00 | 0.00 | 63 | 1012.7 |
| 20260906063209 | 56 | 212 | 0.0 | 0.0 | 0.00 | 0.00 | 0.00 | 63 | 1012.6 |
| 20260906063003 | 56 | 212 | 0.0 | 0.0 | 0.00 | 0.00 | 0.00 | 63 | 1012.7 |
| 20260906062759 | 56 | 212 | 0.0 | 0.0 | 0.00 | 0.00 | 0.00 | 62 | 1012.7 |
| 20260906062549 | 56 | 212 | 0.0 | 0.0 | 0.00 | 0.00 | 0.00 | 63 | 1012.7 |
| 20260906062342 | 57 | 212 | 0.0 | 0.0 | 0.00 | 0.00 | 0.00 | 62 | 1012.7 |
| 20260906062141 | 57 | 212 | 0.0 | 0.0 | 0.00 | 0.00 | 0.00 | 62 | 1012.7 |
| 20260906061753 | 57 | 212 | 0.0 | 0.0 | 0.00 | 0.00 | 0.00 | 62 | 1012.6 |
| 20260906061547 | 57 | 212 | 0.0 | 0.0 | 0.00 | 0.00 | 0.00 | 62 | 1012.6 |
| 20260906061341 | 57 | 212 | 0.0 | 0.0 | 0.00 | 0.00 | 0.00 | 62 | 1012.6 |
| 20260906061137 | 57 | 212 | 0.0 | 0.0 | 0.00 | 0.00 | 0.00 | 62 | 1012.6 |
| 20260906060935 | 57 | 212 | 0.0 | 0.0 | 0.00 | 0.00 | 0.00 | 62 | 1012.6 |
| 20260906060726 | 57 | 212 | 0.0 | 0.0 | 0.00 | 0.00 | 0.00 | 62 | 1012.6 |
| 20260906060332 | 57 | 212 | 0.0 | 0.0 | 0.00 | 0.00 | 0.00 | 62 | 1012.6 |
| 20260906060129 | 57 | 212 | 0.0 | 0.0 | 0.00 | 0.00 | 0.00 | 62 | 1012.6 |
| 20260906055927 | 57 | 212 | 0.0 | 0.0 | 0.00 | 0.00 | 0.00 | 61 | 1012.7 |
| 20260906055718 | 57 | 212 | 0.0 | 0.0 | 0.00 | 0.00 | 0.00 | 62 | 1012.7 |
| 20260906055140 | 57 | 212 | 0.0 | 0.0 | 0.00 | 0.00 | 0.00 | 61 | 1012.7 |
| 20260906054927 | 58 | 212 | 0.0 | 0.0 | 0.00 | 0.00 | 0.00 | 61 | 1012.7 |
| 20260906054532 | 58 | 212 | 0.0 | 0.0 | 0.00 | 0.00 | 0.00 | 61 | 1012.6 |
| 20260906054321 | 58 | 212 | 0.0 | 0.0 | 0.00 | 0.00 | 0.00 | 61 | 1012.7 |
| 20260906054109 | 58 | 212 | 0.0 | 0.0 | 0.00 | 0.00 | 0.00 | 61 | 1012.7 |
| 20260906053857 | 58 | 212 | 0.0 | 0.0 | 0.00 | 0.00 | 0.00 | 60 | 1012.7 |
| 20260906053651 | 58 | 212 | 0.0 | 0.0 | 0.00 | 0.00 | 0.00 | 60 | 1012.7 |
| 20260906053438 | 58 | 212 | 0.0 | 0.0 | 0.00 | 0.00 | 0.00 | 60 | 1012.7 |
| 20260906053226 | 58 | 212 | 0.0 | 0.0 | 0.00 | 0.00 | 0.00 | 60 | 1012.7 |
| 20260906053016 | 58 | 212 | 0.0 | 0.0 | 0.00 | 0.00 | 0.00 | 60 | 1012.7 |
| 20260906052620 | 58 | 212 | 0.0 | 0.0 | 0.00 | 0.00 | 0.00 | 60 | 1012.7 |
| 20260906052411 | 58 | 212 | 0.0 | 0.0 | 0.00 | 0.00 | 0.00 | 60 | 1012.7 |
| 20260906052204 | 58 | 212 | 0.0 | 0.0 | 0.00 | 0.00 | 0.00 | 60 | 1012.8 |
| 20260906051955 | 59 | 212 | 0.0 | 0.0 | 0.00 | 0.00 | 0.00 | 59 | 1012.8 |
| 20260906051604 | 59 | 212 | 0.0 | 0.0 | 0.00 | 0.00 | 0.00 | 59 | 1012.8 |
| 20260906051400 | 59 | 212 | 0.0 | 0.0 | 0.00 | 0.00 | 0.00 | 59 | 1012.8 |
| 20260906051158 | 59 | 212 | 0.0 | 0.0 | 0.00 | 0.00 | 0.00 | 59 | 1012.8 |
| 20260906050946 | 59 | 212 | 0.0 | 0.0 | 0.00 | 0.00 | 0.00 | 59 | 1012.8 |
| 20260906050739 | 59 | 212 | 0.0 | 0.0 | 0.00 | 0.00 | 0.00 | 59 | 1012.9 |
| 20260906050532 | 59 | 212 | 0.0 | 0.0 | 0.00 | 0.00 | 0.00 | 59 | 1012.8 |
| 20260906050327 | 59 | 212 | 0.0 | 0.0 | 0.00 | 0.00 | 0.00 | 59 | 1012.8 |
| 20260906045929 | 59 | 212 | 0.0 | 0.0 | 0.00 | 0.00 | 0.00 | 58 | 1012.8 |
| 20260906045716 | 60 | 212 | 0.0 | 0.0 | 0.00 | 0.00 | 0.00 | 58 | 1012.8 |
| 20260906045511 | 60 | 212 | 0.0 | 0.0 | 0.00 | 0.00 | 0.00 | 58 | 1012.7 |
| 20260906045309 | 60 | 212 | 0.0 | 0.0 | 0.00 | 0.00 | 0.00 | 58 | 1012.7 |
| 20260906045101 | 60 | 212 | 0.0 | 0.0 | 0.00 | 0.00 | 0.00 | 58 | 1012.7 |
| 20260906044855 | 60 | 212 | 0.0 | 0.0 | 0.00 | 0.00 | 0.00 | 57 | 1012.7 |
| 20260906044643 | 60 | 212 | 0.0 | 0.0 | 0.00 | 0.00 | 0.00 | 57 | 1012.7 |
| 20260906044436 | 60 | 212 | 0.0 | 0.0 | 0.00 | 0.00 | 0.00 | 57 | 1012.6 |
| 20260906044227 | 60 | 212 | 0.0 | 0.0 | 0.00 | 0.00 | 0.00 | 57 | 1012.7 |
| 20260906044014 | 60 | 212 | 0.0 | 0.0 | 0.00 | 0.00 | 0.00 | 57 | 1012.8 |
| 20260906043622 | 61 | 212 | 0.0 | 0.0 | 0.00 | 0.00 | 0.00 | 57 | 1012.7 |
| 20260906043417 | 61 | 212 | 0.0 | 0.0 | 0.00 | 0.00 | 0.00 | 57 | 1012.7 |
| 20260906043215 | 61 | 212 | 0.0 | 0.0 | 0.00 | 0.00 | 0.00 | 56 | 1012.6 |
| 20260906043004 | 61 | 212 | 0.0 | 0.0 | 0.00 | 0.00 | 0.00 | 56 | 1012.6 |
| 20260906042756 | 61 | 212 | 0.0 | 0.0 | 0.00 | 0.00 | 0.00 | 56 | 1012.5 |
| 20260906042546 | 61 | 212 | 0.0 | 0.0 | 0.00 | 0.00 | 0.00 | 56 | 1012.6 |
| 20260906042335 | 61 | 212 | 0.0 | 0.0 | 0.00 | 0.00 | 0.00 | 56 | 1012.5 |
| 20260906042130 | 61 | 212 | 0.0 | 0.0 | 0.00 | 0.00 | 0.00 | 56 | 1012.5 |
| 20260906041925 | 62 | 212 | 0.0 | 0.0 | 0.00 | 0.00 | 0.00 | 55 | 1012.5 |
| 20260906041715 | 62 | 212 | 0.0 | 0.0 | 0.00 | 0.00 | 0.00 | 55 | 1012.5 |
| 20260906041326 | 62 | 212 | 0.0 | 0.0 | 0.00 | 0.00 | 0.00 | 55 | 1012.4 |
| 20260906041120 | 62 | 212 | 0.0 | 0.0 | 0.00 | 0.00 | 0.00 | 55 | 1012.4 |
| 20260906040918 | 62 | 212 | 0.0 | 0.0 | 0.00 | 0.00 | 0.00 | 55 | 1012.4 |
| 20260906040715 | 62 | 212 | 0.0 | 0.0 | 0.00 | 0.00 | 0.00 | 54 | 1012.4 |
| 20260906040506 | 62 | 212 | 0.0 | 0.0 | 0.00 | 0.00 | 0.00 | 54 | 1012.4 |
| 20260906040257 | 63 | 212 | 0.0 | 0.0 | 0.00 | 0.00 | 0.00 | 54 | 1012.3 |
| 20260906035908 | 63 | 212 | 0.0 | 0.0 | 0.00 | 0.00 | 0.00 | 54 | 1012.3 |
| 20260906035700 | 63 | 212 | 0.0 | 0.0 | 0.00 | 0.00 | 0.00 | 54 | 1012.3 |
| 20260906035455 | 63 | 212 | 0.0 | 0.0 | 0.00 | 0.00 | 0.00 | 54 | 1012.3 |
| 20260906034731 | 64 | 212 | 0.0 | 0.0 | 0.00 | 0.00 | 0.00 | 53 | 1012.2 |
| 20260906034528 | 64 | 212 | 0.0 | 0.0 | 0.00 | 0.00 | 0.00 | 52 | 1012.3 |
| 20260906034324 | 64 | 212 | 0.0 | 0.0 | 0.00 | 0.00 | 0.00 | 52 | 1012.3 |
| 20260906034111 | 64 | 212 | 0.0 | 0.0 | 0.00 | 0.00 | 0.00 | 52 | 1012.2 |
| 20260906033908 | 64 | 212 | 0.0 | 0.0 | 0.00 | 0.00 | 0.00 | 52 | 1012.3 |
| 20260906033705 | 64 | 212 | 0.0 | 0.0 | 0.00 | 0.00 | 0.00 | 52 | 1012.2 |
| 20260906033456 | 64 | 212 | 0.0 | 0.0 | 0.00 | 0.00 | 0.00 | 51 | 1012.2 |
| 20260906033248 | 65 | 212 | 0.0 | 0.0 | 0.00 | 0.00 | 0.00 | 51 | 1012.2 |
| 20260906033045 | 65 | 212 | 0.0 | 0.0 | 0.00 | 0.00 | 0.00 | 51 | 1012.1 |
| 20260906032838 | 65 | 212 | 0.0 | 0.0 | 0.00 | 0.00 | 0.00 | 51 | 1012.2 |
| 20260906032444 | 65 | 212 | 0.0 | 0.0 | 0.00 | 0.00 | 0.00 | 51 | 1012.1 |
| 20260906032241 | 65 | 212 | 0.0 | 0.0 | 0.00 | 0.00 | 0.00 | 51 | 1012.1 |
| 20260906032037 | 66 | 212 | 0.0 | 0.0 | 0.00 | 0.00 | 0.00 | 50 | 1012.1 |
| 20260906031831 | 66 | 212 | 0.0 | 0.0 | 0.00 | 0.00 | 0.00 | 50 | 1012.1 |
| 20260906031436 | 66 | 212 | 0.0 | 0.0 | 0.00 | 0.00 | 0.00 | 50 | 1012.1 |
| 20260906031226 | 66 | 212 | 0.0 | 0.0 | 0.00 | 0.00 | 0.00 | 50 | 1012.1 |
| 20260906031023 | 66 | 212 | 0.0 | 0.0 | 0.00 | 0.00 | 0.00 | 50 | 1012.0 |
| 20260906030819 | 66 | 212 | 0.0 | 0.0 | 0.00 | 0.00 | 0.00 | 49 | 1012.0 |
| 20260906030618 | 67 | 212 | 0.0 | 0.0 | 0.00 | 0.00 | 0.00 | 49 | 1012.0 |
| 20260906030409 | 67 | 212 | 0.0 | 0.0 | 0.00 | 0.00 | 0.00 | 49 | 1011.9 |
| 20260906030203 | 67 | 212 | 0.0 | 0.0 | 0.00 | 0.00 | 0.00 | 49 | 1012.0 |
| 20260906025956 | 67 | 212 | 0.0 | 0.0 | 0.00 | 0.00 | 0.00 | 49 | 1012.0 |
| 20260906025743 | 67 | 212 | 0.0 | 0.0 | 0.00 | 0.00 | 0.00 | 49 | 1012.0 |
| 20260906025357 | 68 | 212 | 0.0 | 0.0 | 0.00 | 0.00 | 0.00 | 48 | 1011.9 |
| 20260906025149 | 68 | 212 | 0.0 | 0.0 | 0.00 | 0.00 | 0.00 | 48 | 1011.9 |
| 20260906024943 | 68 | 212 | 0.0 | 0.0 | 0.00 | 0.00 | 0.00 | 48 | 1011.9 |
| 20260906024733 | 68 | 212 | 0.0 | 0.0 | 0.00 | 0.00 | 0.00 | 48 | 1011.9 |
| 20260906024527 | 68 | 212 | 0.0 | 0.0 | 0.00 | 0.00 | 0.00 | 48 | 1011.9 |
| 20260906024322 | 69 | 212 | 0.0 | 0.0 | 0.00 | 0.00 | 0.00 | 48 | 1011.8 |
| 20260906024112 | 69 | 212 | 0.0 | 0.0 | 0.00 | 0.00 | 0.00 | 48 | 1011.9 |
| 20260906023903 | 69 | 212 | 0.0 | 0.0 | 0.00 | 0.00 | 0.00 | 47 | 1011.9 |
| 20260906023701 | 69 | 212 | 0.0 | 0.0 | 0.00 | 0.00 | 0.00 | 47 | 1011.8 |
| 20260906023453 | 69 | 212 | 0.0 | 0.0 | 0.00 | 0.00 | 0.00 | 47 | 1011.9 |
| 20260906023250 | 69 | 212 | 0.0 | 0.0 | 0.00 | 0.00 | 0.00 | 47 | 1011.9 |
| 20260906023042 | 70 | 212 | 0.0 | 0.0 | 0.00 | 0.00 | 0.00 | 47 | 1011.8 |
| 20260906022841 | 70 | 212 | 0.0 | 0.0 | 0.00 | 0.00 | 0.00 | 47 | 1011.8 |
| 20260906022632 | 70 | 212 | 0.0 | 0.0 | 0.00 | 0.00 | 0.00 | 46 | 1011.9 |
| 20260906022238 | 70 | 212 | 0.0 | 0.0 | 0.00 | 0.00 | 0.00 | 46 | 1011.8 |
| 20260906022025 | 70 | 212 | 0.0 | 0.0 | 0.00 | 0.00 | 0.00 | 46 | 1011.8 |
| 20260906021821 | 71 | 212 | 0.0 | 0.0 | 0.00 | 0.00 | 0.00 | 46 | 1011.9 |
| 20260906021613 | 71 | 212 | 0.0 | 0.0 | 0.00 | 0.00 | 0.00 | 45 | 1011.8 |
| 20260906021359 | 71 | 212 | 0.0 | 0.0 | 0.00 | 0.00 | 0.00 | 45 | 1011.8 |
| 20260906021152 | 71 | 212 | 0.0 | 0.0 | 0.00 | 0.00 | 0.00 | 45 | 1011.8 |
| 20260906020945 | 71 | 212 | 0.0 | 0.0 | 0.00 | 0.00 | 0.00 | 45 | 1011.8 |
| 20260906020551 | 72 | 212 | 0.0 | 0.0 | 0.00 | 0.00 | 0.00 | 45 | 1011.9 |
| 20260906020346 | 72 | 212 | 0.0 | 0.0 | 0.00 | 0.00 | 0.00 | 44 | 1011.9 |
| 20260906015956 | 72 | 212 | 0.0 | 0.0 | 0.00 | 0.00 | 0.00 | 44 | 1011.9 |
| 20260906015609 | 72 | 212 | 0.0 | 0.0 | 0.00 | 0.00 | 0.00 | 44 | 1011.9 |
| 20260906015357 | 72 | 212 | 0.0 | 0.0 | 0.00 | 0.00 | 0.00 | 44 | 1011.8 |
| 20260906015144 | 73 | 212 | 0.0 | 0.0 | 0.00 | 0.00 | 0.00 | 43 | 1011.8 |
| 20260906014935 | 73 | 212 | 0.0 | 0.0 | 0.00 | 0.00 | 0.00 | 43 | 1011.9 |
| 20260906014725 | 73 | 212 | 0.0 | 0.0 | 0.00 | 0.00 | 0.00 | 43 | 1011.9 |
| 20260906014513 | 73 | 212 | 0.0 | 0.0 | 0.00 | 0.00 | 0.00 | 43 | 1011.9 |
| 20260906014307 | 73 | 212 | 0.0 | 0.0 | 0.00 | 0.00 | 0.00 | 42 | 1011.9 |
| 20260906014100 | 73 | 212 | 0.0 | 0.0 | 0.00 | 0.00 | 0.00 | 42 | 1012.0 |
| 20260906013850 | 74 | 212 | 0.0 | 1.0 | 0.00 | 0.00 | 0.00 | 42 | 1011.9 |
| 20260906013643 | 74 | 212 | 0.0 | 0.0 | 0.00 | 0.00 | 0.00 | 42 | 1012.0 |
| 20260906012923 | 74 | 212 | 0.0 | 0.0 | 0.00 | 0.00 | 0.00 | 42 | 1011.9 |
| 20260906012716 | 74 | 212 | 0.0 | 0.0 | 0.00 | 0.00 | 0.00 | 41 | 1012.0 |
| 20260906012509 | 74 | 212 | 0.0 | 0.0 | 0.00 | 0.00 | 0.00 | 42 | 1011.9 |
| 20260906012116 | 75 | 212 | 0.0 | 0.0 | 0.00 | 0.00 | 0.00 | 41 | 1012.0 |
| 20260906011903 | 75 | 212 | 0.0 | 1.0 | 0.00 | 0.00 | 0.00 | 40 | 1012.0 |
| 20260906011657 | 75 | 212 | 0.0 | 1.0 | 0.00 | 0.00 | 0.00 | 40 | 1012.0 |
| 20260906011455 | 75 | 212 | 0.0 | 1.0 | 0.00 | 0.00 | 0.00 | 40 | 1012.1 |
| 20260906011245 | 75 | 212 | 0.0 | 1.0 | 0.00 | 0.00 | 0.00 | 40 | 1012.0 |
| 20260906011034 | 75 | 212 | 0.0 | 0.0 | 0.00 | 0.00 | 0.00 | 40 | 1012.0 |
| 20260906010821 | 75 | 212 | 0.0 | 0.0 | 0.00 | 0.00 | 0.00 | 40 | 1012.0 |
| 20260906010609 | 76 | 212 | 0.0 | 3.0 | 0.00 | 0.00 | 0.00 | 39 | 1012.0 |
| 20260906010358 | 76 | 212 | 0.0 | 1.0 | 0.00 | 0.00 | 0.00 | 38 | 1012.0 |
| 20260906010148 | 76 | 212 | 0.0 | 0.0 | 0.00 | 0.00 | 0.00 | 39 | 1012.0 |
| 20260906005946 | 76 | 212 | 0.0 | 4.0 | 0.00 | 0.00 | 0.00 | 39 | 1012.0 |
| 20260906005735 | 76 | 212 | 0.0 | 3.0 | 0.00 | 0.00 | 0.00 | 38 | 1012.0 |
| 20260906005526 | 76 | 212 | 0.0 | 3.0 | 0.00 | 0.00 | 0.00 | 38 | 1012.0 |
| 20260906005317 | 76 | 212 | 0.0 | 3.0 | 0.00 | 0.00 | 0.00 | 37 | 1011.9 |
| 20260906005105 | 77 | 211 | 0.0 | 3.0 | 0.00 | 0.00 | 0.00 | 37 | 1012.0 |
| 20260906004854 | 77 | 218 | 0.0 | 3.0 | 0.00 | 0.00 | 0.00 | 38 | 1012.0 |
| 20260906004642 | 77 | 214 | 0.0 | 2.0 | 0.00 | 0.00 | 0.00 | 37 | 1012.0 |
| 20260906004437 | 77 | 214 | 0.0 | 0.0 | 0.00 | 0.00 | 0.00 | 37 | 1012.0 |
| 20260906004235 | 77 | 214 | 0.0 | 2.0 | 0.00 | 0.00 | 0.00 | 37 | 1012.0 |
| 20260906004028 | 77 | 214 | 0.0 | 2.0 | 0.00 | 0.00 | 0.00 | 36 | 1012.0 |
| 20260906003632 | 78 | 215 | 0.0 | 4.0 | 0.00 | 0.00 | 0.00 | 36 | 1012.0 |
| 20260906003421 | 78 | 216 | 0.0 | 4.0 | 0.00 | 0.00 | 0.00 | 36 | 1012.0 |
| 20260906003210 | 78 | 216 | 1.0 | 4.0 | 0.00 | 0.00 | 0.00 | 36 | 1012.0 |
| 20260906002823 | 78 | 221 | 0.0 | 4.0 | 0.00 | 0.00 | 0.00 | 36 | 1012.0 |
| 20260906002611 | 78 | 231 | 0.0 | 5.0 | 0.00 | 0.00 | 0.00 | 37 | 1012.1 |
| 20260906002401 | 78 | 232 | 0.0 | 5.0 | 0.00 | 0.00 | 0.00 | 37 | 1012.0 |
| 20260906002158 | 78 | 205 | 0.0 | 5.0 | 0.00 | 0.00 | 0.00 | 37 | 1011.9 |
| 20260906001943 | 78 | 205 | 0.0 | 5.0 | 0.00 | 0.00 | 0.00 | 37 | 1011.9 |
| 20260906001741 | 78 | 205 | 0.0 | 5.0 | 0.00 | 0.00 | 0.00 | 37 | 1011.9 |
| 20260906001528 | 78 | 203 | 1.0 | 5.0 | 0.00 | 0.00 | 0.00 | 36 | 1012.0 |
| 20260906001319 | 78 | 188 | 1.0 | 5.0 | 0.00 | 0.00 | 0.00 | 37 | 1011.9 |
| 20260906001113 | 78 | 218 | 1.0 | 5.0 | 0.00 | 0.00 | 0.00 | 36 | 1012.0 |
| 20260906000904 | 79 | 213 | 1.0 | 5.0 | 0.00 | 0.00 | 0.00 | 36 | 1012.0 |
| 20260906000510 | 79 | 211 | 1.0 | 6.0 | 0.00 | 0.00 | 0.00 | 36 | 1012.0 |
| 20260906000307 | 79 | 211 | 1.0 | 6.0 | 0.00 | 0.00 | 0.00 | 35 | 1012.0 |
| 20260906000100 | 79 | 210 | 0.0 | 6.0 | 0.00 | 0.00 | 0.00 | 38 | 1012.1 |
| 20260905235850 | 79 | 210 | 1.0 | 6.0 | 0.00 | 0.00 | 0.00 | 37 | 1012.1 |
| 20260905235456 | 79 | 209 | 1.0 | 6.0 | 0.00 | 0.00 | 0.00 | 36 | 1012.1 |
| 20260905235250 | 79 | 217 | 1.0 | 6.0 | 0.00 | 0.00 | 0.00 | 38 | 1012.2 |
| 20260905235049 | 79 | 215 | 1.0 | 6.0 | 0.00 | 0.00 | 0.00 | 36 | 1012.1 |
| 20260905234846 | 79 | 227 | 0.0 | 6.0 | 0.00 | 0.00 | 0.00 | 37 | 1012.1 |
| 20260905234641 | 79 | 272 | 0.0 | 6.0 | 0.00 | 0.00 | 0.00 | 37 | 1012.1 |
| 20260905234431 | 79 | 215 | 0.0 | 6.0 | 0.00 | 0.00 | 0.00 | 37 | 1012.2 |
| 20260905234224 | 79 | 208 | 0.0 | 6.0 | 0.00 | 0.00 | 0.00 | 38 | 1012.1 |
| 20260905234022 | 79 | 205 | 1.0 | 6.0 | 0.00 | 0.00 | 0.00 | 36 | 1012.1 |
| 20260905233818 | 79 | 205 | 1.0 | 6.0 | 0.00 | 0.00 | 0.00 | 36 | 1012.2 |
| 20260905233607 | 79 | 202 | 1.0 | 6.0 | 0.00 | 0.00 | 0.00 | 36 | 1012.2 |
| 20260905233356 | 79 | 215 | 1.0 | 6.0 | 0.00 | 0.00 | 0.00 | 37 | 1012.1 |
| 20260905233147 | 79 | 168 | 1.0 | 6.0 | 0.00 | 0.00 | 0.00 | 36 | 1012.1 |
| 20260905232943 | 79 | 219 | 1.0 | 6.0 | 0.00 | 0.00 | 0.00 | 36 | 1012.1 |
| 20260905232734 | 79 | 215 | 1.0 | 6.0 | 0.00 | 0.00 | 0.00 | 36 | 1012.1 |
| 20260905232532 | 79 | 215 | 1.0 | 8.0 | 0.00 | 0.00 | 0.00 | 36 | 1012.1 |
| 20260905232326 | 79 | 214 | 1.0 | 8.0 | 0.00 | 0.00 | 0.00 | 35 | 1012.2 |
| 20260905232117 | 79 | 224 | 1.0 | 8.0 | 0.00 | 0.00 | 0.00 | 36 | 1012.2 |
| 20260905231915 | 79 | 221 | 0.0 | 8.0 | 0.00 | 0.00 | 0.00 | 36 | 1012.2 |
| 20260905231522 | 79 | 213 | 1.0 | 8.0 | 0.00 | 0.00 | 0.00 | 37 | 1012.3 |
| 20260905231319 | 79 | 212 | 1.0 | 8.0 | 0.00 | 0.00 | 0.00 | 36 | 1012.3 |
| 20260905230931 | 79 | 196 | 1.0 | 8.0 | 0.00 | 0.00 | 0.00 | 37 | 1012.4 |
| 20260905230719 | 79 | 217 | 1.0 | 5.0 | 0.00 | 0.00 | 0.00 | 38 | 1012.5 |
| 20260905230515 | 79 | 218 | 0.0 | 5.0 | 0.00 | 0.00 | 0.00 | 38 | 1012.4 |
| 20260905230309 | 79 | 219 | 1.0 | 4.0 | 0.00 | 0.00 | 0.00 | 38 | 1012.4 |
| 20260905225921 | 78 | 222 | 1.0 | 3.0 | 0.00 | 0.00 | 0.00 | 38 | 1012.5 |
| 20260905225716 | 78 | 222 | 2.0 | 7.0 | 0.00 | 0.00 | 0.00 | 38 | 1012.5 |
| 20260905225143 | 79 | 234 | 2.0 | 7.0 | 0.00 | 0.00 | 0.00 | 37 | 1012.6 |
| 20260905224933 | 78 | 175 | 1.0 | 7.0 | 0.00 | 0.00 | 0.00 | 37 | 1012.6 |
| 20260905224543 | 78 | 83 | 1.0 | 7.0 | 0.00 | 0.00 | 0.00 | 38 | 1012.6 |
| 20260905224331 | 79 | 197 | 0.0 | 7.0 | 0.00 | 0.00 | 0.00 | 39 | 1012.7 |
| 20260905224124 | 79 | 234 | 0.0 | 7.0 | 0.00 | 0.00 | 0.00 | 38 | 1012.6 |
| 20260905223918 | 79 | 209 | 0.0 | 5.0 | 0.00 | 0.00 | 0.00 | 38 | 1012.5 |
| 20260905223523 | 79 | 157 | 1.0 | 5.0 | 0.00 | 0.00 | 0.00 | 38 | 1012.6 |
| 20260905223319 | 78 | 232 | 1.0 | 5.0 | 0.00 | 0.00 | 0.00 | 38 | 1012.6 |
| 20260905222925 | 78 | 215 | 0.0 | 5.0 | 0.00 | 0.00 | 0.00 | 38 | 1012.6 |
| 20260905222722 | 78 | 224 | 1.0 | 7.0 | 0.00 | 0.00 | 0.00 | 38 | 1012.6 |
| 20260905222513 | 78 | 213 | 0.0 | 7.0 | 0.00 | 0.00 | 0.00 | 40 | 1012.7 |
| 20260905221933 | 78 | 223 | 1.0 | 7.0 | 0.00 | 0.00 | 0.00 | 40 | 1012.8 |
| 20260905221721 | 78 | 225 | 2.0 | 7.0 | 0.00 | 0.00 | 0.00 | 40 | 1012.8 |
| 20260905221515 | 78 | 215 | 2.0 | 7.0 | 0.00 | 0.00 | 0.00 | 39 | 1012.8 |
| 20260905221314 | 78 | 209 | 2.0 | 7.0 | 0.00 | 0.00 | 0.00 | 40 | 1012.8 |
| 20260905221104 | 78 | 79 | 2.0 | 7.0 | 0.00 | 0.00 | 0.00 | 40 | 1012.8 |
| 20260905220859 | 78 | 230 | 1.0 | 7.0 | 0.00 | 0.00 | 0.00 | 39 | 1012.8 |
| 20260905220656 | 78 | 226 | 1.0 | 6.0 | 0.00 | 0.00 | 0.00 | 41 | 1012.8 |
| 20260905220310 | 78 | 209 | 1.0 | 6.0 | 0.00 | 0.00 | 0.00 | 40 | 1012.8 |
| 20260905220103 | 78 | 199 | 1.0 | 5.0 | 0.00 | 0.00 | 0.00 | 41 | 1012.8 |
| 20260905215858 | 78 | 216 | 1.0 | 5.0 | 0.00 | 0.00 | 0.00 | 42 | 1012.8 |
| 20260905215654 | 78 | 226 | 1.0 | 5.0 | 0.00 | 0.00 | 0.00 | 41 | 1012.8 |
| 20260905215446 | 78 | 75 | 1.0 | 4.0 | 0.00 | 0.00 | 0.00 | 40 | 1012.8 |
| 20260905215241 | 79 | 213 | 1.0 | 6.0 | 0.00 | 0.00 | 0.00 | 40 | 1012.9 |
| 20260905215036 | 79 | 213 | 1.0 | 6.0 | 0.00 | 0.00 | 0.00 | 39 | 1012.9 |
| 20260905214834 | 79 | 218 | 1.0 | 6.0 | 0.00 | 0.00 | 0.00 | 39 | 1012.9 |
| 20260905214626 | 79 | 211 | 0.0 | 6.0 | 0.00 | 0.00 | 0.00 | 39 | 1012.8 |
| 20260905214230 | 79 | 222 | 0.0 | 4.0 | 0.00 | 0.00 | 0.00 | 39 | 1012.8 |
| 20260905214017 | 78 | 244 | 0.0 | 3.0 | 0.00 | 0.00 | 0.00 | 40 | 1013.0 |
| 20260905213815 | 78 | 194 | 0.0 | 0.0 | 0.00 | 0.00 | 0.00 | 42 | 1013.0 |
| 20260905213608 | 78 | 194 | 2.0 | 8.0 | 0.00 | 0.00 | 0.00 | 42 | 1013.1 |
| 20260905213356 | 77 | 209 | 2.0 | 8.0 | 0.00 | 0.00 | 0.00 | 41 | 1013.1 |
| 20260905213152 | 77 | 207 | 2.0 | 8.0 | 0.00 | 0.00 | 0.00 | 40 | 1013.0 |
| 20260905212941 | 78 | 231 | 2.0 | 8.0 | 0.00 | 0.00 | 0.00 | 40 | 1013.1 |
| 20260905212736 | 78 | 257 | 1.0 | 8.0 | 0.00 | 0.00 | 0.00 | 40 | 1013.1 |
| 20260905212529 | 78 | 238 | 1.0 | 8.0 | 0.00 | 0.00 | 0.00 | 40 | 1013.0 |
| 20260905212319 | 78 | 213 | 2.0 | 8.0 | 0.00 | 0.00 | 0.00 | 40 | 1013.1 |
| 20260905212109 | 78 | 196 | 2.0 | 8.0 | 0.00 | 0.00 | 0.00 | 39 | 1013.1 |
| 20260905211902 | 78 | 223 | 2.0 | 8.0 | 0.00 | 0.00 | 0.00 | 42 | 1013.0 |
| 20260905211656 | 78 | 225 | 2.0 | 8.0 | 0.00 | 0.00 | 0.00 | 39 | 1013.1 |
| 20260905211452 | 78 | 207 | 2.0 | 8.0 | 0.00 | 0.00 | 0.00 | 40 | 1013.1 |
| 20260905211249 | 78 | 195 | 2.0 | 8.0 | 0.00 | 0.00 | 0.00 | 40 | 1013.1 |
| 20260905211043 | 78 | 209 | 2.0 | 8.0 | 0.00 | 0.00 | 0.00 | 41 | 1013.1 |
| 20260905210839 | 78 | 236 | 1.0 | 8.0 | 0.00 | 0.00 | 0.00 | 41 | 1013.1 |
| 20260905210301 | 77 | 226 | 1.0 | 8.0 | 0.00 | 0.00 | 0.00 | 42 | 1013.0 |
| 20260905205909 | 77 | 54 | 1.0 | 8.0 | 0.00 | 0.00 | 0.00 | 42 | 1013.0 |
| 20260905205657 | 77 | 200 | 1.0 | 8.0 | 0.00 | 0.00 | 0.00 | 42 | 1013.0 |
| 20260905205452 | 77 | 329 | 1.0 | 8.0 | 0.00 | 0.00 | 0.00 | 41 | 1013.0 |
| 20260905205245 | 77 | 304 | 1.0 | 8.0 | 0.00 | 0.00 | 0.00 | 42 | 1013.0 |
| 20260905205035 | 77 | 159 | 1.0 | 8.0 | 0.00 | 0.00 | 0.00 | 42 | 1013.1 |
| 20260905204824 | 77 | 248 | 1.0 | 8.0 | 0.00 | 0.00 | 0.00 | 42 | 1013.1 |
| 20260905204622 | 76 | 225 | 1.0 | 8.0 | 0.00 | 0.00 | 0.00 | 42 | 1013.1 |
| 20260905204420 | 76 | 215 | 0.0 | 6.0 | 0.00 | 0.00 | 0.00 | 44 | 1013.0 |
| 20260905204207 | 76 | 235 | 1.0 | 6.0 | 0.00 | 0.00 | 0.00 | 42 | 1013.1 |
| 20260905203957 | 76 | 235 | 1.0 | 6.0 | 0.00 | 0.00 | 0.00 | 42 | 1013.1 |
| 20260905203750 | 76 | 235 | 1.0 | 6.0 | 0.00 | 0.00 | 0.00 | 43 | 1013.1 |
| 20260905203209 | 76 | 218 | 1.0 | 7.0 | 0.00 | 0.00 | 0.00 | 43 | 1013.1 |
| 20260905203005 | 76 | 193 | 0.0 | 7.0 | 0.00 | 0.00 | 0.00 | 45 | 1013.1 |
| 20260905202802 | 76 | 195 | 1.0 | 7.0 | 0.00 | 0.00 | 0.00 | 45 | 1013.1 |
| 20260905202555 | 76 | 205 | 1.0 | 7.0 | 0.00 | 0.00 | 0.00 | 43 | 1013.2 |
| 20260905202343 | 76 | 211 | 1.0 | 7.0 | 0.00 | 0.00 | 0.00 | 43 | 1013.2 |
| 20260905201949 | 76 | 39 | 0.0 | 7.0 | 0.00 | 0.00 | 0.00 | 45 | 1013.2 |
| 20260905201742 | 76 | 218 | 0.0 | 7.0 | 0.00 | 0.00 | 0.00 | 44 | 1013.2 |
| 20260905201532 | 76 | 218 | 1.0 | 7.0 | 0.00 | 0.00 | 0.00 | 44 | 1013.2 |
| 20260905201324 | 76 | 225 | 0.0 | 6.0 | 0.00 | 0.00 | 0.00 | 46 | 1013.2 |
| 20260905201115 | 75 | 225 | 1.0 | 6.0 | 0.00 | 0.00 | 0.00 | 44 | 1013.2 |
| 20260905200905 | 75 | 223 | 1.0 | 7.0 | 0.00 | 0.00 | 0.00 | 45 | 1013.3 |
| 20260905200654 | 76 | 213 | 1.0 | 7.0 | 0.00 | 0.00 | 0.00 | 44 | 1013.2 |
| 20260905200308 | 75 | 218 | 1.0 | 7.0 | 0.00 | 0.00 | 0.00 | 45 | 1013.3 |
| 20260905195919 | 75 | 215 | 1.0 | 7.0 | 0.00 | 0.00 | 0.00 | 45 | 1013.2 |
| 20260905195715 | 75 | 215 | 1.0 | 7.0 | 0.00 | 0.00 | 0.00 | 45 | 1013.2 |
| 20260905195512 | 75 | 207 | 1.0 | 7.0 | 0.00 | 0.00 | 0.00 | 45 | 1013.2 |
| 20260905195306 | 74 | 207 | 1.0 | 7.0 | 0.00 | 0.00 | 0.00 | 46 | 1013.3 |
| 20260905194910 | 74 | 210 | 0.0 | 5.0 | 0.00 | 0.00 | 0.00 | 46 | 1013.3 |
| 20260905194704 | 74 | 213 | 1.0 | 5.0 | 0.00 | 0.00 | 0.00 | 46 | 1013.2 |
| 20260905194454 | 74 | 213 | 0.0 | 5.0 | 0.00 | 0.00 | 0.00 | 45 | 1013.2 |
| 20260905194249 | 74 | 214 | 1.0 | 6.0 | 0.00 | 0.00 | 0.00 | 46 | 1013.3 |
| 20260905194046 | 74 | 214 | 1.0 | 6.0 | 0.00 | 0.00 | 0.00 | 46 | 1013.3 |
| 20260905193836 | 73 | 214 | 1.0 | 6.0 | 0.00 | 0.00 | 0.00 | 47 | 1013.2 |
| 20260905193625 | 73 | 208 | 1.0 | 6.0 | 0.00 | 0.00 | 0.00 | 47 | 1013.3 |
| 20260905193415 | 73 | 227 | 1.0 | 7.0 | 0.00 | 0.00 | 0.00 | 48 | 1013.4 |
| 20260905193208 | 73 | 209 | 0.0 | 7.0 | 0.00 | 0.00 | 0.00 | 49 | 1013.4 |
| 20260905193001 | 73 | 222 | 0.0 | 7.0 | 0.00 | 0.00 | 0.00 | 50 | 1013.4 |
| 20260905192752 | 73 | 202 | 1.0 | 7.0 | 0.00 | 0.00 | 0.00 | 47 | 1013.4 |
| 20260905192544 | 73 | 202 | 1.0 | 7.0 | 0.00 | 0.00 | 0.00 | 47 | 1013.4 |
| 20260905192339 | 73 | 221 | 1.0 | 7.0 | 0.00 | 0.00 | 0.00 | 50 | 1013.4 |
| 20260905192133 | 73 | 221 | 2.0 | 7.0 | 0.00 | 0.00 | 0.00 | 48 | 1013.3 |
| 20260905191932 | 73 | 221 | 1.0 | 7.0 | 0.00 | 0.00 | 0.00 | 47 | 1013.5 |
| 20260905191720 | 73 | 217 | 1.0 | 7.0 | 0.00 | 0.00 | 0.00 | 46 | 1013.4 |